Dewpoint
57 55 53 50 47 44 42 41 39 37 37 36 35 34 34 34 36 36 39 53 52 51 47 50 48 47 46 45 45 44 44 43 43 43 44 44 43 41 40 41 42 43 44
55 53 51 48 45 42 40 38 37 34 34 34 34 34 34 32 34 39 43 47 49 48 48 46 46 45 44 43 43 44 44 42 41 42 43 42 41 40 38 39 40 41 42
54 51 48 45 42 42 41 39 37 36 33 32 34 34 33 34 32 33 36 43 42 44 46 45 44 41 40 39 42 41 42 41 39 40 41 40 39 38 38 37 38 39 39
52 49 46 45 44 42 40 38 36 35 34 32 34 33 32 33 32 32 32 32 33 34 37 43 44 43 40 38 37 38 40 41 39 39 39 38 37 37 37 36 36 37 38
51 48 47 46 45 42 41 38 38 36 34 33 32 35 33 32 33 31 31 32 32 32 31 33 36 39 41 41 38 38 37 39 40 40 40 38 38 36 36 35 36 37 37
50 49 47 46 44 41 39 38 38 38 36 36 32 33 35 33 34 34 32 31 33 33 32 32 31 30 35 36 38 39 36 36 35 40 42 41 40 38 37 35 34 34 35
50 49 46 45 43 41 39 40 38 38 37 37 35 34 34 34 35 34 34 33 33 33 34 33 31 31 29 30 31 33 34 36 38 38 38 38 39 40 38 36 35 31 32
49 47 45 43 42 40 40 40 39 37 37 38 34 33 28 28 32 34 34 34 35 33 32 33 34 32 31 28 28 31 31 32 32 32 32 32 33 34 36 36 32 31 31
47 46 44 43 42 40 39 40 40 38 36 38 38 32 24 19 27 33 35 34 35 34 35 33 34 32 32 30 28 27 31 32 30 30 29 30 31 32 32 36 36 35 33
47 45 43 43 41 40 40 40 40 39 38 34 37 37 37 34 22 21 31 33 35 35 35 34 32 33 35 31 28 29 33 35 32 29 29 28 29 29 31 32 30 35 35
46 43 43 42 42 41 42 42 40 39 37 32 30 30 33 33 35 31 25 28 31 33 33 33 32 32 33 29 26 30 31 31 31 30 30 28 29 29 29 30 32 33 30
44 43 41 42 41 40 39 38 37 36 34 34 33 33 31 28 28 31 29 26 27 30 33 32 30 30 30 26 24 27 28 27 27 27 29 30 30 28 27 27 27 28 28
42 41 41 40 39 37 36 34 34 34 34 32 33 32 35 35 33 30 29 27 27 27 31 32 31 29 25 24 23 25 25 24 23 23 24 26 28 30 30 28 27 26 25
42 41 41 41 40 40 36 34 34 33 34 36 36 37 34 32 32 30 28 28 29 25 25 29 28 28 24 24 24 22 21 20 20 21 22 24 24 26 26 27 27 26 25
41 43 45 43 43 37 33 34 33 33 36 36 36 36 33 31 31 30 31 31 30 25 20 22 26 27 27 26 23 20 20 17 20 21 21 22 23 23 23 24 24 24 24
42 45 45 44 39 33 34 34 34 34 34 35 34 33 32 31 30 30 29 30 29 27 23 22 24 26 26 21 18 20 19 18 16 20 22 22 24 24 24 24 23 24 25
44 45 44 39 33 33 33 34 34 34 34 34 33 32 31 31 29 29 30 30 28 29 26 24 27 24 21 19 19 19 17 14 15 18 22 23 24 24 24 25 24 24 24
46 42 38 34 32 32 32 33 33 33 33 33 32 32 31 29 30 30 30 29 28 29 30 26 24 19 19 19 19 18 14 13 16 16 21 20 20 21 21 21 22 23 23
40 36 33 32 32 32 32 33 33 34 33 33 32 32 31 30 29 28 29 28 27 27 26 26 22 18 19 19 18 16 13 16 16 16 16 16 18 21 23 22 23 24 24
33 32 32 32 33 32 32 33 33 33 33 32 33 32 31 30 28 28 29 29 28 26 28 24 19 18 18 18 17 14 11 13 12 13 14 17 19 19 21 22 22 23 24
30 29 30 32 32 32 30 31 32 33 33 33 33 32 31 31 31 30 27 27 27 26 25 21 18 17 17 16 15 12 13 13 14 15 15 15 15 14 16 17 18 21 23
30 31 30 31 31 28 28 29 30 30 31 31 30 30 30 30 31 32 33 32 30 25 22 20 18 18 18 16 16 14 14 14 12 15 15 14 15 14 15 16 17 21 23
32 31 31 31 30 30 28 28 29 29 29 29 30 30 28 28 30 28 28 25 26 26 22 20 21 20 20 19 14 14 14 13 13 13 13 14 15 15 17 17 19 21 23
29 29 30 30 30 28 27 27 29 29 30 30 30 30 29 28 28 28 25 23 22 23 23 22 21 20 20 17 14 16 17 17 16 14 13 15 16 15 17 18 20 23 25
29 29 28 29 28 27 28 27 29 28 28 29 30 30 29 28 28 28 25 25 24 23 22 22 22 22 22 19 21 19 18 17 15 14 14 16 15 13 16 18 21 22 23
27 28 27 28 28 27 28 28 29 29 30 28 29 29 29 29 29 27 27 27 27 24 21 20 20 20 18 18 21 20 18 17 14 13 12 13 12 14 15 17 21 21 23
Wind_Speed
10 11 11 11 10 11 11 12 12 12 13 12 11 10 10 10 9 8 7 13 12 8 3 3 4 5 5 6 6 5 6 8 9 11 9 9 10 12 13 14 15 15 16
13 12 13 12 11 11 10 11 10 10 11 10 11 10 9 9 9 8 7 8 14 16 13 6 2 2 3 3 3 2 2 5 6 8 6 7 9 11 13 13 14 15 15
14 14 13 12 11 12 13 12 10 9 10 9 9 7 6 7 8 10 10 8 7 12 13 10 5 3 2 3 1 3 2 1 2 3 3 5 6 8 11 13 14 14 14
15 13 13 12 11 11 11 10 8 8 7 6 7 6 4 4 5 7 7 7 8 7 6 11 10 8 6 8 9 9 6 5 4 5 4 5 6 7 9 12 14 14 13
14 14 13 12 11 10 8 8 6 5 5 4 4 4 1 3 3 4 5 5 7 5 4 5 9 9 11 10 12 12 12 4 7 8 8 7 7 8 9 12 13 13 13
13 14 13 12 10 10 8 6 7 5 4 2 1 1 2 4 2 1 2 1 4 2 3 5 8 8 8 9 9 10 14 16 17 12 15 12 10 11 10 11 12 13 14
13 14 12 11 9 9 9 7 5 4 3 0 2 4 4 5 6 4 3 3 3 2 3 5 8 8 8 8 7 10 11 14 17 19 21 17 16 14 9 9 13 14 16
14 13 13 11 10 10 9 6 4 3 2 2 2 2 3 4 9 10 7 6 4 3 5 7 7 8 9 9 7 9 10 12 15 18 20 21 21 17 9 15 16 16 14
13 12 11 10 9 8 7 6 6 6 4 4 4 3 3 4 9 3 6 6 5 5 6 8 8 11 10 9 8 7 9 12 13 15 17 19 20 19 21 16 16 21 16
11 11 11 11 8 7 7 6 5 5 4 3 3 6 5 5 6 9 3 4 5 9 8 9 10 11 9 8 6 6 9 10 12 13 16 18 20 21 20 19 21 17 24
12 13 13 12 11 8 8 6 7 4 3 3 4 3 5 5 7 9 15 9 8 10 11 10 11 10 7 5 5 3 8 11 13 14 15 16 17 20 22 23 22 25 22
12 13 12 11 10 11 6 6 5 5 4 3 4 5 6 6 7 7 12 15 15 13 10 8 9 8 3 2 2 6 9 12 13 15 16 18 19 20 22 24 25 26 26
13 13 14 12 11 10 9 9 8 6 5 6 7 5 5 6 6 9 13 16 15 13 10 9 8 5 4 2 3 8 7 11 14 17 19 20 20 21 22 24 26 27 27
15 16 14 13 11 11 12 9 6 5 6 7 7 6 5 6 7 10 11 13 16 15 12 12 6 6 5 5 4 9 11 13 17 18 19 20 21 22 23 25 26 27 28
14 14 9 7 7 12 10 10 6 6 8 7 7 7 7 7 8 9 10 10 12 18 16 6 9 7 8 8 9 14 15 17 21 19 21 21 21 22 22 23 25 26 28
13 8 5 4 8 11 9 6 6 7 8 7 7 9 9 8 9 8 9 10 12 14 18 11 10 10 8 9 9 12 15 19 18 18 18 19 20 21 22 22 23 24 25
15 12 11 11 13 8 6 7 9 8 9 11 11 11 12 10 10 10 10 11 13 12 15 15 10 8 8 10 11 12 13 15 15 15 16 18 20 22 22 21 23 24 25
10 14 13 9 7 6 7 9 11 10 12 14 14 12 13 10 12 12 12 14 15 16 15 20 15 11 10 10 11 14 13 14 14 15 16 22 23 23 23 23 23 24 25
7 7 6 6 7 7 9 10 12 13 14 14 14 13 13 12 14 14 14 15 16 14 14 15 16 10 10 9 12 13 13 14 13 15 19 19 17 17 19 21 22 23 24
5 3 4 5 7 7 7 9 10 11 12 13 13 13 13 13 15 16 16 17 14 14 14 14 15 14 12 11 11 13 14 12 14 15 17 12 15 19 21 21 20 21 22
6 5 4 6 6 5 5 7 9 10 11 13 14 14 13 14 14 16 14 16 15 16 14 14 15 14 14 13 14 12 14 14 15 14 12 12 16 17 16 17 17 18 18
4 4 7 5 5 6 7 10 11 12 14 16 18 17 15 13 16 18 18 19 19 16 16 16 15 16 16 14 12 12 13 14 14 7 14 18 16 18 16 14 16 21 24
6 6 6 6 8 8 9 13 15 14 16 18 18 17 15 13 15 16 15 16 16 17 16 14 17 17 15 12 12 12 13 13 15 16 19 20 17 17 14 15 19 22 22
6 6 6 6 8 10 12 13 15 15 16 18 17 17 17 18 16 14 14 15 13 13 14 14 15 15 13 12 11 12 14 15 16 16 14 18 14 17 16 18 18 15 15
6 7 7 8 11 13 13 15 15 14 15 18 18 18 19 20 17 16 16 16 16 15 13 17 16 14 14 13 14 12 13 14 17 16 14 12 14 19 17 17 10 9 21
7 7 10 12 15 17 17 20 18 15 16 18 17 18 19 22 19 19 18 17 18 17 14 12 13 14 15 15 15 15 13 14 15 14 2 9 16 14 9 8 10 17 15
Wind_Direction
124 115 118 121 119 110 108 105 100 95 92 83 73 65 61 56 43 32 25 29 31 19 2 141 121 108 90 70 56 52 55 51 38 27 35 47 48 46 39 36 32 29 28
127 129 128 125 118 114 107 99 99 95 83 80 69 60 60 59 53 46 46 56 45 46 41 59 81 112 98 70 60 64 54 30 27 13 32 34 40 35 29 27 25 23 22
138 139 133 126 122 113 109 101 97 100 92 86 75 73 78 70 63 51 45 46 51 49 39 38 24 18 355 15 264 286 260 307 330 328 7 15 17 14 14 14 14 12 10
148 141 133 131 127 119 115 117 109 94 94 88 71 68 91 100 70 54 45 45 44 26 31 22 17 4 333 309 309 311 280 245 278 280 282 324 343 348 352 359 3 360 359
147 141 136 136 135 127 121 116 104 99 90 86 78 54 117 155 83 75 78 75 39 11 5 30 12 1 358 337 318 306 292 307 259 266 262 275 289 312 333 344 348 343 344
146 139 142 142 138 123 122 121 113 101 101 64 263 298 220 206 188 145 134 128 18 18 7 351 338 320 341 342 336 322 300 288 284 253 259 267 276 284 295 319 323 322 325
152 148 143 142 138 142 140 137 129 125 138 111 266 282 221 218 228 244 239 264 320 258 318 328 318 309 305 321 330 326 316 308 309 308 309 294 269 257 252 287 288 307 307
152 153 154 152 156 142 146 144 135 150 163 179 302 297 314 240 235 242 248 256 273 263 294 317 307 308 301 296 312 329 331 322 307 301 299 297 294 287 262 260 270 283 283
160 159 152 151 153 153 156 152 172 189 173 190 225 298 303 297 315 241 231 242 260 269 294 310 304 305 295 290 293 301 342 329 316 302 298 296 293 290 284 283 287 271 297
160 152 152 156 149 151 162 174 185 185 163 236 220 228 250 279 298 304 254 271 256 271 278 300 312 310 299 287 301 317 336 354 346 326 305 295 292 289 292 281 291 301 280
160 163 165 159 164 164 154 156 165 167 187 238 246 254 255 260 262 275 295 290 276 279 283 289 312 311 300 283 293 349 5 1 350 335 318 304 295 294 295 296 289 287 291
171 174 162 163 157 140 149 161 162 182 183 218 233 233 256 272 282 280 289 297 296 297 284 274 280 304 281 283 359 352 353 349 341 330 320 310 302 295 290 288 288 288 289
180 172 164 156 141 135 157 184 189 183 191 217 222 228 226 241 261 283 289 289 286 294 284 281 284 285 238 223 326 339 328 333 328 318 309 302 296 292 289 288 287 286 285
172 158 154 150 162 163 190 183 184 199 210 221 214 211 228 252 265 280 280 289 292 289 270 271 269 246 235 263 302 322 321 319 321 315 308 304 298 292 289 287 284 282 281
149 148 147 146 179 202 186 187 195 215 217 217 218 224 238 263 272 277 272 270 268 287 291 290 281 227 247 274 313 322 312 312 312 308 305 302 299 296 292 287 284 282 280
141 143 145 172 223 204 195 190 214 226 226 225 231 236 245 258 269 267 263 262 261 267 280 285 274 272 261 274 291 298 299 303 300 302 302 303 300 294 290 286 282 281 280
149 177 194 188 217 216 205 220 231 239 239 243 238 240 251 259 265 265 257 254 255 252 265 278 268 263 254 270 286 291 296 296 294 291 297 298 294 289 286 291 289 285 282
176 181 188 193 216 229 238 241 247 247 245 245 246 243 251 260 258 260 258 258 259 258 253 273 280 260 261 281 290 293 297 294 293 294 289 291 290 292 289 286 283 280 278
176 189 164 199 224 237 245 246 249 254 250 247 245 249 256 266 267 267 263 264 263 257 252 261 268 268 276 283 289 291 295 294 292 294 289 286 288 292 287 285 285 284 279
140 189 171 219 235 243 249 259 260 259 252 245 245 251 256 262 269 273 268 268 259 249 253 251 262 269 273 289 288 295 299 299 299 299 294 284 291 290 287 286 285 281 276
149 177 204 232 239 253 267 278 274 264 256 256 258 254 256 257 260 260 262 267 262 259 253 254 261 267 275 283 290 303 293 302 302 295 292 305 304 299 293 287 280 276 277
168 215 226 226 254 263 272 286 283 278 269 264 265 263 258 253 258 254 253 248 256 255 253 257 262 270 279 286 291 288 292 300 307 290 301 304 301 297 294 290 291 289 288
235 236 229 240 260 271 281 290 288 281 273 268 265 262 263 261 261 263 254 254 252 234 242 248 256 265 279 281 282 281 282 290 294 303 305 301 304 296 297 292 291 294 292
244 251 259 255 263 275 277 284 285 282 272 267 262 260 263 269 263 255 254 250 247 245 237 235 248 261 270 275 263 273 286 290 289 293 296 295 303 303 306 299 294 294 304
269 269 263 267 270 276 273 276 278 275 270 268 264 262 260 266 260 239 242 246 254 255 244 241 246 254 255 249 252 277 276 287 295 302 297 278 300 310 305 295 292 301 314
277 274 272 267 267 271 270 266 265 270 263 264 261 265 261 259 254 235 236 238 249 252 251 241 238 245 246 244 245 251 269 278 292 310 275 301 310 320 314 301 313 310 313